timestamp,surface_pressure_avg,surface_temp_avg,battery_voltage,lat,long
2023-12-18 00:09:00+00:00,208.2264,5.3,11.7,47.84626,-54.09684
2023-12-18 00:19:00+00:00,213.3848,5.3,11.7,47.84626,-54.09684
2023-12-18 00:29:00+00:00,222.8431,5.3,11.7,47.84626,-54.09684
2023-12-18 00:39:00+00:00,227.1381,5.3,11.7,47.84626,-54.09684
2023-12-18 00:49:00+00:00,230.4815,5.3,11.7,47.84626,-54.09684
2023-12-18 00:59:00+00:00,241.1447,5.3,11.7,47.84626,-54.09684
2023-12-18 01:09:00+00:00,248.2964,5.3,11.7,47.84626,-54.09684
2023-12-18 01:19:00+00:00,249.3331,5.3,11.7,47.84626,-54.09684
2023-12-18 01:29:00+00:00,252.4764,5.3,11.7,47.84626,-54.09684
2023-12-18 01:39:00+00:00,254.9564,5.3,11.7,47.84626,-54.09684
2023-12-18 01:49:00+00:00,259.1081,5.24,11.7,47.84626,-54.09684
2023-12-18 01:59:00+00:00,266.9897,5.2,11.7,47.84626,-54.09684
2023-12-18 02:09:00+00:00,275.0847,5.2,11.7,47.84626,-54.09684
2023-12-18 02:19:00+00:00,277.4264,5.1,11.7,47.84626,-54.09684
2023-12-18 02:29:00+00:00,282.613,5.1,11.7,47.84626,-54.09684
2023-12-18 02:39:00+00:00,290.1664,5.1,11.7,47.84626,-54.09684
2023-12-18 02:49:00+00:00,291.5664,5.07,11.7,47.84626,-54.09684
2023-12-18 02:59:00+00:00,290.7731,5.0,11.7,47.84626,-54.09684
2023-12-18 03:09:00+00:00,293.2947,5.0,11.7,47.84626,-54.09684
2023-12-18 03:19:00+00:00,297.5847,5.0,11.7,47.84626,-54.09684
2023-12-18 03:29:00+00:00,300.1364,5.0,11.7,47.84626,-54.09684
2023-12-18 03:39:00+00:00,300.0663,5.0,11.7,47.84626,-54.09684
2023-12-18 03:49:00+00:00,296.4498,5.0,11.7,47.84626,-54.09684
2023-12-18 03:59:00+00:00,290.888,5.0,11.7,47.84626,-54.09684
2023-12-18 04:09:00+00:00,286.2981,5.0,11.7,47.84626,-54.09684
2023-12-18 04:19:00+00:00,283.8381,5.0,11.7,47.84626,-54.09684
2023-12-18 04:29:00+00:00,283.4514,5.0,11.7,47.84626,-54.09684
2023-12-18 04:39:00+00:00,284.8747,5.0,11.7,47.84626,-54.09684
2023-12-18 04:49:00+00:00,283.9213,5.0,11.7,47.84626,-54.09684
2023-12-18 04:59:00+00:00,284.7747,5.0,11.7,47.84626,-54.09684
2023-12-18 05:09:00+00:00,283.9197,4.99,11.7,47.84626,-54.09684
2023-12-18 05:19:00+00:00,282.1764,4.99,11.61,47.84626,-54.09684
2023-12-18 05:29:00+00:00,278.2164,4.9,11.61,47.84626,-54.09684
2023-12-18 05:39:00+00:00,275.223,4.91,11.61,47.84626,-54.09684
2023-12-18 05:49:00+00:00,270.7814,4.94,11.61,47.84626,-54.09684
2023-12-18 05:59:00+00:00,264.4314,4.94,11.61,47.84626,-54.09684
2023-12-18 06:09:00+00:00,256.5148,4.95,11.61,47.84626,-54.09684
2023-12-18 06:19:00+00:00,247.3581,4.95,11.61,47.84626,-54.09684
2023-12-18 06:29:00+00:00,242.5381,4.94,11.61,47.84626,-54.09684
2023-12-18 06:39:00+00:00,240.7798,4.92,11.61,47.84626,-54.09684
2023-12-18 06:49:00+00:00,232.1081,4.96,11.61,47.84626,-54.09684
2023-12-18 06:59:00+00:00,221.4381,4.99,11.61,47.84626,-54.09684
2023-12-18 07:09:00+00:00,215.7331,4.98,11.61,47.84626,-54.09684
2023-12-18 07:19:00+00:00,211.6381,4.96,11.61,47.84626,-54.09684
2023-12-18 07:29:00+00:00,206.0397,4.95,11.61,47.84626,-54.09684
2023-12-18 07:39:00+00:00,200.4814,4.98,11.61,47.84626,-54.09684
2023-12-18 07:49:00+00:00,190.8248,5.0,11.61,47.84626,-54.09684
2023-12-18 07:59:00+00:00,179.9332,5.0,11.61,47.84626,-54.09684
2023-12-18 08:09:00+00:00,176.6748,5.0,11.61,47.84626,-54.09684
2023-12-18 08:19:00+00:00,174.7015,5.0,11.61,47.84626,-54.09684
2023-12-18 08:29:00+00:00,168.5965,5.0,11.61,47.84626,-54.09684
2023-12-18 08:39:00+00:00,166.4665,5.0,11.61,47.84626,-54.09684
2023-12-18 08:49:00+00:00,169.2365,5.0,11.61,47.84626,-54.09684
2023-12-18 08:59:00+00:00,171.4198,5.0,11.61,47.84626,-54.09684
2023-12-18 09:09:00+00:00,173.8931,5.0,11.61,47.84626,-54.09684
2023-12-18 09:19:00+00:00,176.9331,5.0,11.61,47.84626,-54.09684
2023-12-18 09:29:00+00:00,179.6098,5.0,11.61,47.84626,-54.09684
2023-12-18 09:39:00+00:00,178.0331,4.99,11.61,47.84626,-54.09684
2023-12-18 09:49:00+00:00,177.8348,4.9,11.61,47.84626,-54.09684
2023-12-18 09:59:00+00:00,183.9731,4.9,11.61,47.84626,-54.09684
2023-12-18 10:09:00+00:00,186.9831,4.9,11.61,47.84626,-54.09684
2023-12-18 10:19:00+00:00,188.9081,4.9,11.61,47.84626,-54.09684
2023-12-18 10:29:00+00:00,191.1448,4.8,11.61,47.84626,-54.09684
2023-12-18 10:39:00+00:00,195.3481,4.8,11.61,47.84626,-54.09684
2023-12-18 10:49:00+00:00,198.1715,4.8,11.61,47.84626,-54.09684
2023-12-18 10:59:00+00:00,199.4565,4.8,11.61,47.84626,-54.09684
2023-12-18 11:09:00+00:00,204.8731,4.8,11.61,47.84626,-54.09684
2023-12-18 11:19:00+00:00,208.7831,4.8,11.53,47.84626,-54.09684
2023-12-18 11:29:00+00:00,212.3448,4.8,11.53,47.84626,-54.09684
2023-12-18 11:39:00+00:00,218.2115,4.8,11.53,47.84626,-54.09684
2023-12-18 11:49:00+00:00,220.9331,4.8,11.53,47.84626,-54.09684
2023-12-18 11:59:00+00:00,223.7481,4.7,11.53,47.84626,-54.09684
2023-12-18 12:09:00+00:00,229.4947,4.7,11.53,47.84626,-54.09684
2023-12-18 12:19:01+00:00,233.5398,4.7,11.53,47.84626,-54.09684
2023-12-18 12:29:01+00:00,238.8581,4.7,11.53,47.84626,-54.09684
2023-12-18 12:39:01+00:00,246.5364,4.7,11.53,47.84626,-54.09684
2023-12-18 12:49:01+00:00,253.0464,4.7,11.53,47.84626,-54.09684
2023-12-18 12:59:01+00:00,260.8814,4.7,11.53,47.84626,-54.09684
2023-12-18 13:09:01+00:00,269.6114,4.7,11.53,47.84626,-54.09684
2023-12-18 13:19:00+00:00,277.9064,4.7,11.61,47.84626,-54.09684
2023-12-18 13:29:00+00:00,284.4647,4.7,11.61,47.84626,-54.09684
2023-12-18 13:39:00+00:00,294.4313,4.7,11.61,47.84626,-54.09684
2023-12-18 13:49:00+00:00,302.968,4.7,11.61,47.84626,-54.09684
2023-12-18 13:59:00+00:00,314.6146,4.7,11.61,47.84626,-54.09684
2023-12-18 14:09:00+00:00,323.6747,4.7,11.61,47.84626,-54.09684
2023-12-18 14:19:00+00:00,327.8513,4.7,11.7,47.84626,-54.09684
2023-12-18 14:29:00+00:00,330.1063,4.7,11.7,47.84626,-54.09684
2023-12-18 14:39:00+00:00,331.0162,4.7,11.7,47.84626,-54.09684
2023-12-18 14:49:00+00:00,333.2647,4.7,11.7,47.84626,-54.09684
2023-12-18 14:59:00+00:00,334.9296,4.7,11.7,47.84626,-54.09684
2023-12-18 15:09:00+00:00,340.4462,4.7,11.7,47.84626,-54.09684
2023-12-18 15:19:00+00:00,345.0729,4.7,11.61,47.84626,-54.09684
2023-12-18 15:29:00+00:00,351.3979,4.7,11.61,47.84626,-54.09684
2023-12-18 15:39:00+00:00,353.8963,4.7,11.61,47.84626,-54.09684
2023-12-18 15:49:00+00:00,350.0729,4.7,11.61,47.84626,-54.09684
2023-12-18 15:59:00+00:00,355.1263,4.7,11.61,47.84626,-54.09684
2023-12-18 16:09:00+00:00,357.0329,4.7,11.61,47.84626,-54.09684
2023-12-18 16:19:00+00:00,352.3729,4.7,11.53,47.84626,-54.09684
2023-12-18 16:29:00+00:00,352.4196,4.7,11.53,47.84626,-54.09684
2023-12-18 16:39:00+00:00,354.8213,4.7,11.53,47.84626,-54.09684
2023-12-18 16:49:00+00:00,352.2863,4.7,11.53,47.84626,-54.09684
2023-12-18 16:59:00+00:00,346.9047,4.7,11.53,47.84626,-54.09684
2023-12-18 17:09:00+00:00,349.4712,4.7,11.53,47.84626,-54.09684
2023-12-18 17:19:00+00:00,348.4064,4.72,11.53,47.84626,-54.09684
2023-12-18 17:29:00+00:00,339.6330000000001,4.72,11.53,47.84626,-54.09684
2023-12-18 17:39:00+00:00,338.17800000000005,4.73,11.53,47.84626,-54.09684
2023-12-18 17:49:00+00:00,335.05300000000005,4.75,11.53,47.84626,-54.09684
2023-12-18 17:59:00+00:00,326.9713,4.75,11.53,47.84626,-54.09684
2023-12-18 18:09:00+00:00,314.5697,4.76,11.53,47.84626,-54.09684
2023-12-18 18:19:00+00:00,303.9531,4.76,11.53,47.84626,-54.09684
2023-12-18 18:29:00+00:00,300.3297,4.76,11.53,47.84626,-54.09684
2023-12-18 18:39:00+00:00,292.2214,4.76,11.53,47.84626,-54.09684
2023-12-18 18:49:00+00:00,280.0081,4.79,11.53,47.84626,-54.09684
2023-12-18 18:59:00+00:00,269.7397,4.79,11.53,47.84626,-54.09684
2023-12-18 19:09:00+00:00,264.8997,4.8,11.53,47.84626,-54.09684
2023-12-18 19:19:00+00:00,251.483,4.8,11.53,47.84626,-54.09684
2023-12-18 19:29:00+00:00,243.4764,4.8,11.53,47.84626,-54.09684
2023-12-18 19:39:00+00:00,240.3497,4.8,11.53,47.84626,-54.09684
2023-12-18 19:49:00+00:00,228.9581,4.8,11.53,47.84626,-54.09684
2023-12-18 19:59:00+00:00,214.4832,4.8,11.53,47.84626,-54.09684
2023-12-18 20:09:00+00:00,211.8748,4.8,11.53,47.84626,-54.09684
2023-12-18 20:19:00+00:00,208.7815,4.8,11.53,47.84626,-54.09684
2023-12-18 20:29:00+00:00,200.8531,4.8,11.53,47.84626,-54.09684
2023-12-18 20:39:00+00:00,199.3231,4.8,11.53,47.84626,-54.09684
2023-12-18 20:49:00+00:00,201.7581,4.8,11.53,47.84626,-54.09684
2023-12-18 20:59:00+00:00,198.0498,4.8,11.53,47.84626,-54.09684
2023-12-18 21:09:00+00:00,194.0964,4.8,11.53,47.84626,-54.09684
2023-12-18 21:19:00+00:00,194.5781,4.8,11.53,47.84626,-54.09684
2023-12-18 21:29:00+00:00,196.7547,4.8,11.53,47.84626,-54.09684
2023-12-18 21:39:00+00:00,202.0231,4.8,11.53,47.84626,-54.09684
2023-12-18 21:49:00+00:00,205.0248,4.8,11.53,47.84626,-54.09684
2023-12-18 21:59:00+00:00,204.0898,4.8,11.53,47.84626,-54.09684
2023-12-18 22:09:00+00:00,211.4664,4.8,11.53,47.84626,-54.09684
2023-12-18 22:19:00+00:00,218.0015,4.78,11.53,47.84626,-54.09684
2023-12-18 22:29:00+00:00,219.4098,4.76,11.53,47.84626,-54.09684
2023-12-18 22:39:00+00:00,223.1664,4.73,11.53,47.84626,-54.09684
2023-12-18 22:49:00+00:00,227.2164,4.7,11.53,47.84626,-54.09684
2023-12-18 22:59:00+00:00,225.6481,4.7,11.53,47.84626,-54.09684
2023-12-18 23:09:00+00:00,221.5231,4.7,11.53,47.84626,-54.09684
2023-12-18 23:19:00+00:00,223.2514,4.7,11.53,47.84626,-54.09684
2023-12-18 23:29:00+00:00,229.6648,4.7,11.53,47.84626,-54.09684
2023-12-18 23:39:00+00:00,229.2097,4.7,11.53,47.84626,-54.09684
2023-12-18 23:49:00+00:00,223.2864,4.7,11.53,47.84626,-54.09684
2023-12-18 23:59:00+00:00,225.6781,4.7,11.53,47.84626,-54.09684
